AA5QJ Weather Reports


time (UTC)temp
C
wind
direction
speed
KPH
gust
KPH
rain 1hr
cm
rain 24hr
cm
rain mn
cm
humidity
%
barometer
mb
20260502162755 7 98 8.0 12.9 0.00 0.00 0.00 23 1017.0
20260502162254 6 274 1.6 11.3 0.00 0.00 0.00 23 1017.0
20260502161754 6 58 1.6 9.7 0.00 0.00 0.00 23 1017.0
20260502161256 5 75 0.0 8.0 0.00 0.00 0.00 23 1017.0
20260502160756 6 60 3.2 11.3 0.00 0.00 0.00 24 1017.0
20260502160255 6 108 1.6 11.3 0.00 0.00 0.00 23 1016.6
20260502152254 -10 62 0.0 1.6 0.00 0.00 0.00 27 1016.6
20260502151756 -3 62 0.0 1.6 0.00 0.00 0.00 26 1016.6
20260502151256 -4 273 0.0 0.0 0.00 0.00 0.00 31 1016.6
20260502150755 -6 273 0.0 0.0 0.00 0.00 0.00 33 1016.3
20260502150254 -7 273 0.0 0.0 0.00 0.00 0.00 35 1016.3
20260502130256 -6 270 0.0 1.6 0.00 0.00 0.00 38 1015.3
20260502123756 -2 288 0.0 4.8 0.00 0.00 0.00 37 1015.3
20260502123255 -3 297 3.2 4.8 0.00 0.00 0.00 37 1015.3
20260502122755 -2 302 1.6 4.8 0.00 0.00 0.00 38 1014.9
20260502122254 0 274 0.0 0.0 0.00 0.00 0.00 39 1014.9
20260502121754 -1 274 0.0 0.0 0.00 0.00 0.00 39 1014.9
20260502121254 0 274 0.0 0.0 0.00 0.00 0.00 38 1014.9
20260502120754 0 274 0.0 0.0 0.00 0.00 0.00 38 1014.9
20260502120255 -1 274 0.0 0.0 0.00 0.00 0.00 38 1014.9
20260502115755 -1 274 0.0 0.0 0.00 0.00 0.00 39 1014.9
20260502115255 0 274 0.0 0.0 0.00 0.00 0.00 39 1014.9
20260502114755 0 274 0.0 0.0 0.00 0.00 0.00 39 1014.9
20260502114255 0 274 0.0 0.0 0.00 0.00 0.00 38 1014.9
20260502113755 2 274 0.0 6.4 0.00 0.00 0.00 37 1014.9
20260502113254 1 274 0.0 6.4 0.00 0.00 0.00 37 1014.9
20260502112754 3 259 0.0 1.6 0.00 0.00 0.00 37 1014.9
20260502112254 0 259 0.0 1.6 0.00 0.00 0.00 37 1014.9
20260502111754 3 302 0.0 0.0 0.00 0.00 0.00 36 1014.9
20260502111254 5 302 0.0 0.0 0.00 0.00 0.00 36 1014.9
20260502110756 6 302 0.0 0.0 0.00 0.00 0.00 36 1014.9
20260502110255 7 302 0.0 0.0 0.00 0.00 0.00 36 1014.9
20260502105755 7 302 0.0 0.0 0.00 0.00 0.00 35 1014.9
20260502105255 7 302 0.0 0.0 0.00 0.00 0.00 35 1014.9
20260502104755 6 302 0.0 0.0 0.00 0.00 0.00 35 1014.9
20260502104255 5 302 0.0 1.6 0.00 0.00 0.00 34 1014.9
20260502103754 3 302 0.0 1.6 0.00 0.00 0.00 33 1014.9
20260502103254 5 291 0.0 0.0 0.00 0.00 0.00 33 1014.9
20260502102756 7 291 0.0 0.0 0.00 0.00 0.00 32 1014.9
20260502102256 5 291 0.0 3.2 0.00 0.00 0.00 31 1014.9
20260502101755 3 291 0.0 6.4 0.00 0.00 0.00 30 1014.6
20260502101255 2 294 3.2 6.4 0.00 0.00 0.00 29 1014.9
20260502100755 3 270 3.2 9.7 0.00 0.00 0.00 29 1014.9
20260502100256 2 287 4.8 9.7 0.00 0.00 0.00 28 1014.9
20260502091256 -1 294 9.7 9.7 0.00 0.00 0.00 26 1014.9
20260502090755 0 305 6.4 9.7 0.00 0.00 0.00 27 1014.9
20260502090255 -1 298 0.0 6.4 0.00 0.00 0.00 27 1014.9
20260502071255 18 20 0.0 12.9 0.00 0.00 0.00 22 1014.9
20260502070755 19 294 0.0 8.0 0.00 0.00 0.00 22 1014.9
20260502070255 18 248 0.0 6.4 0.00 0.00 0.00 22 1014.9
20260502065755 18 248 0.0 14.5 0.00 0.00 0.00 22 1014.9
20260502065255 18 301 0.0 14.5 0.00 0.00 0.00 22 1014.9
20260502064754 18 316 8.0 12.9 0.00 0.00 0.00 23 1014.6
20260502064254 18 332 4.8 12.9 0.00 0.00 0.00 22 1014.6
20260502063754 19 326 0.0 1.6 0.00 0.00 0.00 22 1014.6
20260502063255 20 326 0.0 8.0 0.00 0.00 0.00 22 1014.6
20260502062755 20 323 3.2 8.0 0.00 0.00 0.00 21 1014.6
20260502062255 20 314 0.0 8.0 0.00 0.00 0.00 21 1014.6
20260502061756 20 314 3.2 8.0 0.00 0.00 0.00 21 1014.6
20260502061256 19 325 0.0 0.0 0.00 0.00 0.00 21 1014.6
20260502060756 20 325 0.0 0.0 0.00 0.00 0.00 21 1014.6
20260502060255 20 325 0.0 4.8 0.00 0.00 0.00 21 1014.3
20260502055755 20 325 0.0 8.0 0.00 0.00 0.00 21 1014.3
20260502055255 20 332 0.0 9.7 0.00 0.00 0.00 21 1014.3
20260502054755 20 10 0.0 9.7 0.00 0.00 0.00 20 1014.3
20260502054255 20 46 4.8 9.7 0.00 0.00 0.00 20 1014.3
20260502053754 20 315 1.6 9.7 0.00 0.00 0.00 21 1014.3
20260502053255 10 59 0.0 0.0 0.00 0.00 0.00 21 1014.3
20260502052755 11 59 0.0 8.0 0.00 0.00 0.00 21 1014.3
20260502052255 11 59 3.2 19.3 0.00 0.00 0.00 21 1014.3
20260502051754 11 37 1.6 19.3 0.00 0.00 0.00 20 1013.9
20260502051256 11 330 6.4 9.7 0.00 0.00 0.00 21 1013.9
20260502050755 11 69 0.0 9.7 0.00 0.00 0.00 21 1013.9
20260502050255 11 69 1.6 12.9 0.00 0.00 0.00 21 1013.9
20260502045755 11 343 9.7 12.9 0.00 0.00 0.00 22 1013.6
20260502045254 11 302 6.4 11.3 0.00 0.00 0.00 22 1013.6
20260502044754 11 280 0.0 12.9 0.00 0.00 0.00 23 1013.6
20260502044256 11 301 8.0 12.9 0.00 0.00 0.00 23 1013.2
20260502043755 11 297 4.8 11.3 0.00 0.00 0.00 23 1013.6
20260502043255 11 308 6.4 11.3 0.00 0.00 0.00 24 1013.2
20260502042755 11 284 8.0 11.3 0.00 0.00 0.00 24 1013.2
20260502042255 11 311 8.0 11.3 0.00 0.00 0.00 24 1013.2
20260502041754 11 307 6.4 8.0 0.00 0.00 0.00 23 1013.2
20260502041254 11 304 6.4 8.0 0.00 0.00 0.00 23 1012.9
20260502040754 12 293 4.8 8.0 0.00 0.00 0.00 23 1012.9
20260502040256 12 307 3.2 6.4 0.00 0.00 0.00 22 1012.9
20260502035756 12 31 0.0 6.4 0.00 0.00 0.00 21 1012.9
20260502035256 12 31 0.0 8.0 0.00 0.00 0.00 20 1012.9
20260502034756 12 23 3.2 8.0 0.00 0.00 0.00 19 1012.9
20260502034255 12 350 1.6 8.0 0.00 0.00 0.00 20 1012.6
20260502033755 12 20 0.0 3.2 0.00 0.00 0.00 19 1012.6
20260502033255 12 20 0.0 8.0 0.00 0.00 0.00 19 1012.6
20260502032755 12 45 3.2 12.9 0.00 0.00 0.00 19 1012.6
20260502032254 12 41 4.8 12.9 0.00 0.00 0.00 19 1012.6
20260502031756 8 53 6.4 11.3 0.00 0.00 0.00 19 1012.2
20260502031255 8 31 6.4 11.3 0.00 0.00 0.00 19 1012.2
20260502030755 8 46 0.0 4.8 0.00 0.00 0.00 19 1011.9
20260502030255 8 15 0.0 3.2 0.00 0.00 0.00 19 1011.9
20260502025754 8 15 0.0 9.7 0.00 0.00 0.00 19 1011.9
20260502025254 7 329 3.2 11.3 0.00 0.00 0.00 19 1011.9
20260502024754 10 332 8.0 12.9 0.00 0.00 0.00 19 1011.9
20260502024256 10 322 8.0 12.9 0.00 0.00 0.00 19 1011.6
20260502023755 9 328 8.0 11.3 0.00 0.00 0.00 19 1011.6
20260502023255 9 318 4.8 12.9 0.00 0.00 0.00 19 1011.6
20260502022755 9 311 6.4 14.5 0.00 0.00 0.00 19 1011.6
20260502022255 9 336 11.3 14.5 0.00 0.00 0.00 19 1011.6
20260502021756 10 359 8.0 17.7 0.00 0.00 0.00 18 1011.6
20260502021256 11 319 11.3 17.7 0.00 0.00 0.00 18 1011.6
20260502020756 10 318 8.0 16.1 0.00 0.00 0.00 18 1011.6
20260502020255 11 274 8.0 14.5 0.00 0.00 0.00 18 1011.6
20260502015755 11 46 0.0 14.5 0.00 0.00 0.00 18 1011.6
20260502015255 11 69 6.4 12.9 0.00 0.00 0.00 18 1011.2
20260502014755 11 13 1.6 14.5 0.00 0.00 0.00 18 1011.2
20260502014255 11 338 9.7 17.7 0.00 0.00 0.00 18 1011.2
20260502013754 11 308 6.4 17.7 0.00 0.00 0.00 18 1011.2
20260502013255 11 35 9.7 16.1 0.00 0.00 0.00 18 1011.2
20260502012755 12 326 9.7 17.7 0.00 0.00 0.00 18 1011.2
20260502012255 12 359 9.7 20.9 0.00 0.00 0.00 18 1011.2
20260502011755 12 17 9.7 20.9 0.00 0.00 0.00 18 1010.9
20260502011255 12 323 12.9 20.9 0.00 0.00 0.00 18 1010.9
20260502010755 12 326 9.7 17.7 0.00 0.00 0.00 18 1010.9
20260502010254 12 25 9.7 17.7 0.00 0.00 0.00 18 1010.9
20260502005754 13 8 3.2 24.1 0.00 0.00 0.00 18 1010.9
20260502005256 13 20 6.4 24.1 0.00 0.00 0.00 18 1010.9
20260502004756 13 319 11.3 22.5 0.00 0.00 0.00 18 1010.9
20260502004255 13 76 8.0 14.5 0.00 0.00 0.00 18 1010.9
20260502003755 13 10 0.0 20.9 0.00 0.00 0.00 18 1010.9
20260502003254 14 38 4.8 20.9 0.00 0.00 0.00 18 1011.2
20260502002754 13 314 8.0 17.7 0.00 0.00 0.00 18 1010.9
20260502002254 13 44 11.3 17.7 0.00 0.00 0.00 19 1011.2
20260502001756 13 335 0.0 11.3 0.00 0.00 0.00 19 1010.9
20260502001255 13 1 3.2 11.3 0.00 0.00 0.00 19 1011.2
20260502000755 14 34 1.6 12.9 0.00 0.00 0.00 20 1011.2
20260502000255 13 107 8.0 17.7 0.00 0.00 0.00 20 1011.2
20260501235754 13 111 8.0 17.7 0.00 0.00 0.00 20 1011.2
20260501235256 13 60 6.4 14.5 0.00 0.00 0.00 20 1011.2
20260501234755 13 91 9.7 16.1 0.00 0.00 0.00 20 1011.2
20260501234255 13 17 6.4 22.5 0.00 0.00 0.00 19 1011.6
20260501233755 13 65 11.3 22.5 0.00 0.00 0.00 20 1011.2
20260501233254 12 172 1.6 9.7 0.00 0.00 0.00 20 1011.2
20260501232756 11 238 3.2 17.7 0.00 0.00 0.00 20 1011.6
20260501232255 21 38 6.4 20.9 0.00 0.00 0.00 20 1011.6
20260501231755 21 48 12.9 20.9 0.00 0.00 0.00 20 1011.6
20260501231255 23 52 4.8 12.9 0.00 0.00 0.00 20 1011.6
20260501230754 18 124 4.8 20.9 0.00 0.00 0.00 20 1011.6
20260501230256 18 89 9.7 20.9 0.00 0.00 0.00 20 1011.6
20260501225755 22 91 11.3 20.9 0.00 0.00 0.00 20 1011.6
20260501225255 22 35 9.7 20.9 0.00 0.00 0.00 20 1011.6
20260501224755 22 90 8.0 22.5 0.00 0.00 0.00 21 1011.9
20260501224254 22 314 14.5 22.5 0.00 0.00 0.00 20 1011.9
20260501223754 22 93 3.2 17.7 0.00 0.00 0.00 20 1011.9
20260501223254 22 76 9.7 19.3 0.00 0.00 0.00 20 1011.9
20260501222756 22 83 12.9 30.6 0.00 0.00 0.00 20 1011.9
20260501222255 21 96 14.5 30.6 0.00 0.00 0.00 20 1011.9
20260501221755 20 86 11.3 20.9 0.00 0.00 0.00 20 1011.9
20260501221255 21 260 0.0 14.5 0.00 0.00 0.00 21 1011.9
20260501220754 21 10 9.7 14.5 0.00 0.00 0.00 21 1012.2
20260501220254 21 152 0.0 16.1 0.00 0.00 0.00 21 1012.2
20260501215755 22 298 8.0 16.1 0.00 0.00 0.00 21 1012.2
20260501215255 -9 128 3.2 14.5 0.00 0.00 0.00 22 1012.2
20260501214755 1 32 8.0 14.5 0.00 0.00 0.00 21 1012.6
20260501214254 5 121 3.2 11.3 0.00 0.00 0.00 22 1012.6
20260501213756 6 176 3.2 9.7 0.00 0.00 0.00 22 1012.6
20260501213255 6 87 0.0 14.5 0.00 0.00 0.00 22 1012.6
20260501212755 -8 24 4.8 17.7 0.00 0.00 0.00 22 1012.6
20260501212255 -8 89 4.8 17.7 0.00 0.00 0.00 23 1012.6
20260501211755 -4 110 6.4 14.5 0.00 0.00 0.00 23 1012.9
20260501211254 6 70 0.0 16.1 0.00 0.00 0.00 23 1012.9
20260501210754 23 111 4.8 16.1 0.00 0.00 0.00 23 1012.9
20260501210254 23 51 9.7 20.9 0.00 0.00 0.00 23 1012.9
20260501205754 23 72 11.3 22.5 0.00 0.00 0.00 23 1012.9
20260501205256 5 139 9.7 22.5 0.00 0.00 0.00 23 1012.9
20260501204756 5 141 12.9 22.5 0.00 0.00 0.00 23 1012.9
20260501204255 5 141 8.0 16.1 0.00 0.00 0.00 23 1012.9
20260501203755 12 260 8.0 14.5 0.00 0.00 0.00 23 1013.2
20260501203255 11 290 3.2 19.3 0.00 0.00 0.00 24 1013.2
20260501202754 11 294 12.9 19.3 0.00 0.00 0.00 23 1013.2
20260501202254 12 115 3.2 16.1 0.00 0.00 0.00 24 1013.6
20260501201756 12 60 8.0 16.1 0.00 0.00 0.00 23 1013.6
20260501201255 12 42 9.7 17.7 0.00 0.00 0.00 23 1013.6
20260501200755 11 27 12.9 17.7 0.00 0.00 0.00 23 1013.6
20260501200255 -5 10 3.2 16.1 0.00 0.00 0.00 23 1013.6
20260501195754 -3 113 8.0 12.9 0.00 0.00 0.00 23 1013.6
20260501195254 12 110 4.8 12.9 0.00 0.00 0.00 24 1013.6
20260501194756 13 155 3.2 12.9 0.00 0.00 0.00 24 1013.9
20260501194255 10 73 6.4 19.3 0.00 0.00 0.00 24 1013.9
20260501193755 6 183 9.7 19.3 0.00 0.00 0.00 24 1013.9
20260501193254 6 162 3.2 16.1 0.00 0.00 0.00 25 1013.9
20260501192754 6 125 8.0 16.1 0.00 0.00 0.00 26 1014.3
20260501192256 7 163 4.8 9.7 0.00 0.00 0.00 25 1014.3
20260501191755 7 139 4.8 8.0 0.00 0.00 0.00 26 1014.6
20260501191255 7 107 4.8 9.7 0.00 0.00 0.00 26 1014.6
20260501190755 7 4 0.0 9.7 0.00 0.00 0.00 25 1014.6
20260501190255 7 248 0.0 4.8 0.00 0.00 0.00 26 1014.6
20260501185755 8 255 3.2 4.8 0.00 0.00 0.00 26 1014.6
20260501185254 8 86 0.0 9.7 0.00 0.00 0.00 25 1014.6
20260501184754 8 58 1.6 12.9 0.00 0.00 0.00 25 1014.6
20260501184256 8 143 8.0 12.9 0.00 0.00 0.00 24 1014.9
20260501183756 8 86 6.4 9.7 0.00 0.00 0.00 25 1014.9
20260501183255 8 6 1.6 19.3 0.00 0.00 0.00 25 1014.9
20260501182755 8 23 8.0 19.3 0.00 0.00 0.00 24 1014.9
20260501182255 8 204 0.0 9.7 0.00 0.00 0.00 24 1014.9
20260501181755 7 174 1.6 12.9 0.00 0.00 0.00 24 1014.9
20260501181254 8 143 4.8 16.1 0.00 0.00 0.00 25 1014.9
20260501180754 6 132 6.4 19.3 0.00 0.00 0.00 25 1014.9
20260501180254 7 108 8.0 19.3 0.00 0.00 0.00 26 1015.3
20260501175754 6 60 9.7 16.1 0.00 0.00 0.00 25 1015.3
20260501175254 6 114 0.0 14.5 0.00 0.00 0.00 26 1015.3
20260501174756 6 90 8.0 14.5 0.00 0.00 0.00 26 1015.3
20260501174256 6 52 3.2 16.1 0.00 0.00 0.00 26 1015.3
20260501173756 6 253 6.4 16.1 0.00 0.00 0.00 27 1015.3
20260501173255 6 87 8.0 12.9 0.00 0.00 0.00 27 1015.3
20260501172755 6 41 8.0 12.9 0.00 0.00 0.00 27 1015.3
20260501172255 6 25 3.2 16.1 0.00 0.00 0.00 27 1015.3
20260501171755 6 66 3.2 22.5 0.00 0.00 0.00 27 1015.3
20260501171255 6 66 12.9 22.5 0.00 0.00 0.00 26 1015.3
20260501170755 6 51 3.2 9.7 0.00 0.00 0.00 28 1015.3
20260501170255 7 53 4.8 9.7 0.00 0.00 0.00 27 1015.3
20260501165755 6 321 1.6 12.9 0.00 0.00 0.00 28 1015.3
20260501165255 6 148 4.8 14.5 0.00 0.00 0.00 27 1015.3
20260501164754 7 65 4.8 16.1 0.00 0.00 0.00 27 1015.3
20260501164254 7 65 9.7 16.1 0.00 0.00 0.00 28 1014.9
20260501163754 7 41 6.4 12.9 0.00 0.00 0.00 28 1015.3
20260501163255 7 248 0.0 6.4 0.00 0.00 0.00 29 1014.9